Regional Weather Roundup
Issued by NWS

Home | Current Version | Previous Version | Graphics & Text | Print | Product List | Glossary On
Versions: 1 2 3 4 5 6 7 8 9 10 11 12 13 14 15 16 17 18 19 20 21 22 23 24 25 26 27 28 29 30 31 32 33 34 35 36 37 38 39 40 41 42 43 44 45 46 47 48 49 50
000
ASUS43 KLSX 182059
RWRMO

WEATHER SUMMARY FOR MISSOURI
NATIONAL WEATHER SERVICE SPRINGFIELD MO
300 PM CST THU DEC 18 2014

NOTE: "FAIR" INDICATES FEW OR NO CLOUDS BELOW 12,000 FEET WITH NO
       SIGNIFICANT WEATHER AND/OR OBSTRUCTIONS TO VISIBILITY.
       CURRENT SKY AND/OR WEATHER CONDITIONS ARE NOT AVAILABLE FOR
       CHILLICOTHE AND FARMINGTON.

MOZ001>031-035>038-043-044-053-054-182200-
...NORTHERN AND WESTERN MISSOURI...

CITY           SKY/WX    TMP DP  RH WIND       PRES   REMARKS
KANSAS CTY INT CLOUDY    32  28  85 NE7       30.19R WCI  26
KANSAS C DTWN  CLOUDY    33  29  85 NE6       30.20S WCI  28
LEE`S SUMMIT   CLOUDY    33  29  85 E5        30.19S WCI  29
ST JOSEPH      CLOUDY    32  28  85 E5        30.21S WCI  27
CHILLICOTHE      N/A     32  26  78 NE6       30.23S WCI  26
KIRKSVILLE     CLOUDY    31  27  85 NE3       30.22S

$$
MOZ066>068-077>081-088>096-101>105-182200-
...SOUTHWEST MISSOURI...

CITY           SKY/WX    TMP DP  RH WIND       PRES   REMARKS
SPRINGFIELD    CLOUDY    38  35  89 CALM      30.14S
JOPLIN         CLOUDY    39  36  89 NW7       30.17R

$$
MOZ032>034-039>042-045>050-055>058-069>072-182200-
...CENTRAL MISSOURI...

CITY           SKY/WX    TMP DP  RH WIND       PRES   REMARKS
COLUMBIA       CLOUDY    33  30  88 E5        30.19S WCI  29
JEFFERSON CITY CLOUDY    34  31  88 E5        30.21S WCI  30
ROLLA          LGT SNOW  33  31  92 E5        30.16S FOG     WCI  29
SEDALIA        CLOUDY    34  31  88 E6        30.19S WCI  29
OSAGE BEACH    CLOUDY    36  30  80 NE3       30.17S

$$
MOZ051-052-059>065-182200-
...EAST CENTRAL MISSOURI...

CITY           SKY/WX    TMP DP  RH WIND       PRES   REMARKS
ST LOUIS INTL  CLOUDY    36  26  67 CALM      30.23S
SPIRIT OF STL  CLOUDY    33  29  85 CALM      30.22S FOG
ST CHARLES     CLOUDY    35  25  66 CALM      30.23S

$$
MOZ072>076-082>087-097>100-106>115-182200-
...SOUTH CENTRAL AND SOUTHEAST MISSOURI...

CITY           SKY/WX    TMP DP  RH WIND       PRES   REMARKS
CAPE GIRARDEAU CLOUDY    36  33  89 E5        30.23S
FARMINGTON     CLOUDY    34  34 100 NE5       30.21S WCI  30
POPLAR BLUFF   CLOUDY    38  32  79 E5        30.20S
WEST PLAINS    CLOUDY    37  32  82 SW5       30.17R

$$



USA.gov is the U.S. government's official web portal to all federal, state and local government web resources and services.